[[{"header":{"parameterUnit":"m.s-1","parameterCategory":1,"la1":30.2992,"la2":30.254,"lo1":-89.0895,"lo2":-89.0443,"dy":0.0025,"dx":0.0025,"nx":19,"ny":19,"refTime":"2026-03-13T03:00:00:Z","depth":0,"parameterNumber":2,"parameterNumberName":"U-component_of_WINDS"},"data":[0,0,0,0.0225,0.0224,0.0167,0.0167,0.0097,0.0097,0,0,0,0,0,0,0,0,0,0,0,0.0247,0.0247,0.0226,0.0224,0.0167,0.0167,0.0098,0.0097,0,0,0,0,0,0,0,0,0,0,0,0.0247,0.0247,0.0246,0.0224,0.0167,0.0167,0.0098,0.0139,0,0,0,0,0,0,0,0,0,0,0.0193,0.0218,0.0247,0.0246,0.0224,0.0167,0.0167,0.0141,0.0136,0.0126,0,0.0119,0,0.0107,0.0093,0.0092,0,0,0,0.022,0.0222,0.0203,0.0246,0.0223,0.0167,0.0192,0.0138,0.0133,0.012,0.0118,0.0116,0.0106,0.0092,0.0092,0.005,0.005,0,0,0.0223,0.0238,0.0207,0.02,0.0212,0.0194,0.019,0.0135,0.0134,0.0118,0.0114,0.0105,0.0092,0.0091,0.005,0.005,0,0,0,0.0235,0.0241,0.0223,0.0203,0.0193,0.0192,0.0188,0.0136,0.0129,0.0113,0.0104,0.0092,0.0091,0.005,0.005,0.0065,0,0,0,0.0237,0.0248,0.0224,0.0233,0.0194,0.0164,0.019,0.0133,0.0126,0.0105,0.0091,0.009,0.005,0.005,0.0065,0.007,0,0,0,0.0249,0.0249,0.0243,0.0234,0.021,0.0165,0.0154,0.0131,0.0121,0.0092,0.009,0.005,0.005,0.0064,0.0069,0.0063,0,0,0,0.0266,0.0256,0.0243,0.0229,0.0211,0.0176,0.0155,0.0127,0.0104,0.0091,0.005,0.005,0.0064,0.0068,0.0063,0.0061,0.0062,0,0,0.0262,0.0256,0.0246,0.0233,0.0205,0.0183,0.0155,0.0119,0.0101,0.0067,0.0066,0.0065,0.0069,0.0063,0.0062,0.0063,0,0,0,0.025,0.0243,0.0232,0.0213,0.0187,0.0164,0.013,0.0117,0.0088,0.0088,0.0061,0.0062,0.0058,0.0057,0.0058,0.0053,0.005,0.005,0.005,0.0266,0.0245,0.0228,0.0201,0.0181,0.0148,0.013,0.0105,0.0088,0.0083,0.0072,0.0075,0.0073,0.0074,0.0069,0.007,0.007,0.007,0.007,0.0258,0.0245,0.0225,0.0201,0.0178,0.0156,0.0123,0.0112,0.0087,0.008,0.0076,0.007,0.0076,0.007,0.0071,0.0071,0.0071,0.007,0.007,0.0266,0.0256,0.0242,0.0212,0.019,0.0161,0.014,0.0119,0.0099,0.0095,0.0082,0.0081,0.0078,0.009,0.009,0.009,0.009,0.009,0.009,0.028,0.0263,0.0248,0.022,0.0205,0.0182,0.0148,0.0132,0.0108,0.0095,0.0094,0.0078,0.008,0.0081,0.009,0.009,0.009,0.009,0.009,0.028,0.0277,0.0254,0.0239,0.0204,0.0184,0.0159,0.0127,0.011,0.01,0.0084,0.009,0.0082,0.0081,0.0081,0.009,0.009,0.009,0.009,0.0286,0.0281,0.0253,0.0231,0.0206,0.0181,0.0154,0.0127,0.0098,0.0086,0.0082,0.0081,0.0081,0.0073,0.0072,0.0072,0.0078,0.0078,0.0078,0.0285,0.0276,0.0258,0.0233,0.0203,0.0178,0.0152,0.0125,0.0091,0.0077,0.0076,0.0077,0.0075,0.0075,0.0062,0.0061,0.0061,0,0]},{"header":{"parameterUnit":"m.s-1","parameterCategory":1,"la1":30.2992,"la2":30.254,"lo1":-89.0895,"lo2":-89.0443,"dy":0.0025,"dx":0.0025,"nx":19,"ny":19,"refTime":"2026-03-13T03:00:00:Z","depth":0,"parameterNumber":3,"parameterNumberName":"V-component_of_WINDS"},"data":[0,0,0,1.3501,1.3501,1.3476,1.3475,1.3451,1.3451,0,0,0,0,0,0,0,0,0,0,0,1.3514,1.3514,1.3501,1.3501,1.3476,1.3475,1.3451,1.3451,0,0,0,0,0,0,0,0,0,0,0,1.3514,1.3514,1.3514,1.3501,1.3476,1.3475,1.3452,1.3468,0,0,0,0,0,0,0,0,0,0,1.3491,1.3508,1.3514,1.3514,1.3501,1.3476,1.3475,1.3468,1.3467,1.3467,0,1.3468,0,1.346,1.345,1.345,0,0,0,1.3497,1.351,1.3498,1.3514,1.35,1.3476,1.3486,1.3467,1.3465,1.3464,1.3468,1.3467,1.3459,1.345,1.345,1.3464,1.3464,0,0,1.3498,1.3513,1.3499,1.3497,1.3502,1.3487,1.3485,1.3466,1.3471,1.3468,1.3466,1.3459,1.345,1.345,1.3464,1.3464,0,0,0,1.3505,1.3514,1.3502,1.3498,1.3493,1.3486,1.3484,1.3471,1.3466,1.3466,1.3458,1.345,1.345,1.3463,1.3464,1.349,0,0,0,1.3505,1.3518,1.3503,1.3512,1.3493,1.3482,1.349,1.3468,1.3465,1.3459,1.345,1.345,1.3463,1.3464,1.3489,1.35,0,0,0,1.3514,1.3519,1.3517,1.3513,1.3502,1.3482,1.3476,1.3467,1.3461,1.345,1.345,1.3463,1.3464,1.3487,1.3498,1.3506,0,0,0,1.3527,1.3541,1.3518,1.353,1.3503,1.3499,1.3476,1.3472,1.3466,1.345,1.3463,1.3464,1.3487,1.3496,1.3505,1.3516,1.3522,0,0,1.3553,1.3545,1.3551,1.3529,1.3533,1.3501,1.3509,1.349,1.3475,1.3468,1.3469,1.3489,1.3498,1.3506,1.3553,1.3558,0,0,0,1.3564,1.3569,1.3567,1.3561,1.3547,1.3535,1.3513,1.3506,1.3499,1.3475,1.3495,1.3499,1.3504,1.3508,1.3512,1.3515,1.3467,1.3467,1.3467,1.3621,1.3602,1.3611,1.3588,1.3583,1.356,1.3554,1.354,1.3522,1.3527,1.3525,1.3555,1.3561,1.3564,1.3567,1.353,1.353,1.353,1.353,1.3656,1.3659,1.3635,1.3634,1.3613,1.3612,1.359,1.3578,1.3573,1.3556,1.3559,1.3541,1.357,1.3571,1.3532,1.3531,1.3531,1.3531,1.3531,1.3691,1.3689,1.3679,1.3669,1.3663,1.3639,1.3636,1.3617,1.36,1.3603,1.3597,1.3597,1.3593,1.3602,1.3602,1.3602,1.3602,1.3602,1.3602,1.373,1.3719,1.3718,1.3703,1.3696,1.3685,1.3662,1.3654,1.3642,1.3628,1.3628,1.3609,1.3577,1.3569,1.3604,1.3604,1.3603,1.3603,1.3603,1.3771,1.3758,1.3758,1.3751,1.3731,1.3726,1.3702,1.3689,1.368,1.3679,1.3659,1.3639,1.3629,1.3625,1.3618,1.3664,1.3664,1.3664,1.3664,1.3799,1.3793,1.3787,1.3777,1.3766,1.3744,1.3742,1.3723,1.3702,1.3695,1.3686,1.3675,1.3672,1.3664,1.366,1.3653,1.3706,1.3706,1.3706,1.3823,1.3814,1.3816,1.3795,1.3778,1.3763,1.3761,1.375,1.3723,1.3708,1.3689,1.3687,1.3669,1.3665,1.3649,1.3642,1.3629,0,0]}]]